Terminal Aerodrome Forecast
Issued by NWS Wakefield, VA

Home | Current Version | Previous Version | Text Only | Print | Product List | Glossary On
Versions: 1 2 3 4 5 6 7 8 9 10 11 12 13 14 15 16 17 18 19 20 21 22 23 24 25 26 27 28 29 30 31
000
FTUS41 KAKQ 250500
TAFORF
TAF
KORF 250529Z 2506/2606 21014G23KT 5SM BR BKN035
     FM250700 23013G20KT 4SM -SHRA BR BKN020
     FM251000 26012KT P6SM SCT015 OVC060
     FM251500 32012G20KT P6SM SCT120=

USA.gov is the U.S. government's official web portal to all federal, state and local government web resources and services.